Theta_e
319 319 319 319 319 318 318 318 319 319 319 319 319 319 319 319 319 319 318 318 318 318 319 318 319 318 318 318 319 320 319 321 318 315 315 315 322 343 338 332 335 341 349 347 340 334 329 334 338 343 340 339 341 338 344 344 344 342 331 327 324 326 324 331 329 330 333 333 335 339 339 337 333 338 340 345 341 341 339 339 338 342 341 342 344 345 346 347
319 319 319 318 318 318 318 318 318 319 319 319 319 319 319 319 319 319 318 318 318 318 318 318 318 318 318 318 319 320 320 320 317 317 316 323 335 338 339 343 338 343 352 338 332 328 328 332 339 341 340 337 343 337 341 339 345 335 327 330 324 328 328 336 336 337 335 333 337 339 341 339 337 339 341 336 336 337 335 335 337 337 341 343 344 344 344 346
319 319 319 318 318 318 318 318 318 319 318 319 319 319 319 319 319 319 318 318 318 318 318 318 318 318 318 319 320 320 320 318 318 315 320 341 338 336 340 344 341 349 343 334 330 328 330 335 340 341 340 337 338 335 338 341 341 337 331 325 326 335 334 337 339 338 341 339 337 337 339 340 340 341 341 336 333 336 333 332 334 333 334 338 341 343 343 344
319 319 319 318 318 318 318 318 318 318 318 318 318 318 318 318 318 318 318 318 318 318 318 318 318 318 319 320 320 322 320 317 310 315 338 342 339 338 341 342 344 350 340 333 330 328 333 339 340 340 337 335 336 337 334 340 338 334 330 326 329 335 332 337 343 342 340 341 338 340 339 338 340 341 340 335 330 334 335 335 333 333 334 338 340 341 342 341
319 319 319 318 318 318 318 318 318 318 318 318 318 318 318 318 318 318 318 318 317 318 318 318 318 318 319 320 320 323 319 305 309 324 346 341 336 340 342 343 348 340 335 332 329 327 333 336 337 337 336 333 335 335 334 338 339 335 330 335 335 335 332 341 343 344 340 344 342 340 336 338 344 343 338 334 328 328 334 336 337 338 339 339 339 340 341 341
319 318 318 318 318 318 318 318 317 317 317 317 317 317 317 317 317 317 317 317 317 317 317 318 318 319 319 320 322 321 312 297 312 317 350 340 338 340 345 347 351 335 334 331 325 324 329 333 336 333 333 334 332 329 333 336 339 329 333 336 337 335 335 341 341 342 343 342 340 337 339 343 341 339 338 338 337 336 340 340 340 340 341 341 341 340 340 340
318 318 318 318 318 318 317 317 317 317 317 317 317 317 317 317 317 317 317 317 317 317 317 318 318 319 319 319 322 316 312 308 312 334 351 342 340 340 346 348 354 334 328 325 323 321 325 328 332 334 334 333 333 331 332 334 336 332 329 335 335 340 339 342 341 343 342 342 340 343 343 341 340 333 341 340 343 341 341 341 341 342 342 341 339 341 339 340
318 318 318 318 318 318 317 317 317 317 317 317 317 317 317 317 317 317 317 316 316 317 317 318 319 319 319 321 318 315 307 304 324 346 347 343 338 336 339 337 338 328 322 321 321 320 323 324 327 336 334 330 331 330 327 327 331 329 330 335 335 340 342 342 342 342 342 343 346 345 339 339 341 339 341 339 342 339 340 342 342 341 341 341 341 340 340 340
318 318 318 318 318 317 317 317 317 317 317 317 317 317 317 317 317 317 316 316 316 317 317 318 318 319 320 320 314 305 304 320 335 341 343 331 329 333 329 331 333 323 321 322 322 320 321 322 329 337 330 329 327 324 323 323 326 330 333 335 337 338 341 342 343 343 342 344 345 341 338 340 343 344 338 341 342 340 342 342 342 341 340 339 339 340 341 340
318 318 318 317 318 317 317 317 317 317 317 316 316 316 316 316 316 316 316 316 316 316 317 318 319 320 320 320 314 302 314 327 335 344 331 331 333 328 327 328 329 324 321 321 319 319 318 325 333 339 333 328 325 321 321 323 326 333 336 337 336 337 340 342 340 340 344 343 343 339 338 340 344 341 331 342 343 341 340 340 341 340 338 338 339 340 342 340
318 318 318 318 317 317 317 317 317 317 317 316 316 316 316 315 315 315 316 316 316 317 317 318 319 319 318 318 309 303 317 325 332 340 336 335 332 323 323 326 329 324 322 320 318 320 322 331 339 339 330 326 323 320 323 328 332 337 338 337 337 338 338 340 341 340 340 338 341 341 338 341 342 341 334 340 342 340 338 339 338 338 338 338 339 339 341 339
318 318 318 317 317 317 317 317 317 317 317 316 316 315 315 315 315 315 315 315 316 317 318 319 319 321 321 317 309 308 321 317 333 336 337 336 328 328 328 329 329 326 323 319 319 320 328 334 339 336 322 324 318 320 323 334 336 335 336 331 333 336 335 339 337 338 339 336 341 343 335 333 336 333 338 340 342 341 337 338 338 337 337 339 339 339 339 340
318 318 318 317 317 317 317 317 317 317 316 315 315 314 315 315 315 314 315 314 315 316 317 319 320 323 320 312 309 316 317 320 334 332 332 335 333 332 329 327 326 326 324 321 320 325 327 333 336 332 332 324 318 314 320 331 335 335 334 332 330 330 330 335 336 337 337 338 342 341 319 324 330 336 339 341 342 340 336 336 336 336 338 339 339 338 338 341
318 318 317 317 317 317 317 317 317 316 315 315 315 314 314 314 313 314 314 314 316 318 319 321 323 321 319 307 308 315 319 326 335 328 326 328 324 324 326 325 324 322 322 322 324 328 327 329 330 333 333 325 320 322 318 320 332 328 331 334 325 323 324 335 334 334 330 336 338 337 320 323 330 336 341 342 341 339 336 337 335 336 336 337 338 337 337 340
317 318 317 317 317 317 317 316 316 315 314 314 313 313 312 312 313 315 315 316 317 320 321 323 324 321 313 308 317 322 327 330 328 323 325 322 320 318 320 322 321 322 321 319 319 325 326 326 326 325 325 329 323 316 317 319 326 330 323 322 326 320 323 332 332 333 325 332 338 334 321 321 328 334 341 343 341 340 337 337 336 335 335 336 337 335 336 339
317 317 317 317 317 317 316 316 316 314 314 313 312 311 312 312 315 317 318 319 320 321 325 323 321 319 309 305 319 332 326 324 323 325 325 324 321 318 319 318 319 318 318 317 319 322 323 323 321 327 327 322 317 313 319 320 320 326 320 318 324 322 324 326 329 333 335 332 335 330 322 324 327 335 340 342 340 338 336 335 336 335 335 336 336 335 336 338
317 317 317 317 317 316 316 315 315 314 313 312 311 312 312 315 317 319 321 321 322 324 324 320 319 318 306 312 318 315 316 321 326 325 324 326 323 322 319 317 316 316 318 316 317 317 320 318 324 322 323 319 317 315 315 316 318 320 323 319 321 319 321 319 330 335 333 334 324 330 328 327 330 336 339 342 342 340 336 335 335 335 335 336 336 335 336 338
317 316 317 316 316 316 315 315 315 313 312 312 312 314 317 317 320 322 323 324 326 325 325 323 322 313 304 311 307 311 317 319 323 324 323 323 322 322 319 317 317 315 315 313 314 311 317 319 325 318 316 314 314 312 313 311 316 318 320 319 319 324 321 321 320 326 332 332 326 327 330 328 332 335 337 340 343 341 337 335 335 335 335 336 336 335 336 338
317 317 316 316 316 315 315 315 314 312 312 314 314 314 318 321 325 326 321 322 320 319 315 313 311 301 297 305 313 315 316 319 325 323 316 317 321 323 322 321 317 312 309 308 308 311 316 320 323 316 310 310 311 313 316 311 319 320 322 321 320 318 319 320 328 334 332 326 326 328 325 328 330 333 336 338 341 340 338 338 336 336 336 336 336 335 337 339
317 316 316 316 315 315 315 314 313 311 310 317 320 322 321 320 318 315 321 319 314 310 310 311 312 310 308 311 313 318 320 322 318 319 318 321 320 317 316 317 314 311 308 305 308 312 321 314 314 313 314 313 314 314 314 312 313 324 320 320 321 317 322 329 328 333 333 327 323 327 327 328 328 332 334 337 339 339 338 336 335 336 336 335 335 335 337 340
316 316 316 315 314 315 314 313 312 310 308 317 323 321 309 308 305 304 308 312 314 314 313 312 313 312 311 314 315 317 313 314 319 316 318 322 317 315 311 313 309 305 306 308 308 317 321 314 315 318 319 316 314 313 312 313 315 319 320 318 320 322 319 326 327 332 332 327 324 325 326 328 327 332 335 337 337 336 335 335 336 335 336 336 336 336 338 340
316 316 315 314 314 313 313 313 310 310 308 318 321 317 314 314 317 317 313 307 312 314 314 313 316 312 316 315 317 317 317 314 314 316 319 320 313 309 308 309 306 303 306 308 312 312 314 312 316 320 315 312 311 312 312 311 312 320 321 319 319 319 328 327 330 333 332 327 322 324 324 324 328 332 333 335 335 337 338 338 337 336 336 336 336 337 337 338
316 316 315 315 314 312 311 310 310 308 317 318 319 318 314 319 322 322 318 311 309 313 311 312 310 312 313 316 318 318 313 312 310 315 315 318 311 312 307 306 305 305 307 309 306 309 309 314 319 317 314 311 311 311 310 310 311 314 319 318 315 323 319 319 328 330 332 325 320 325 324 326 329 329 333 335 335 336 341 341 341 339 336 336 337 337 336 336
315 315 315 314 313 312 309 307 309 311 318 320 319 318 321 322 323 320 313 307 304 308 311 312 312 312 312 312 318 316 314 314 315 313 320 316 311 313 308 308 305 307 305 307 307 310 310 315 319 314 313 312 310 311 309 310 309 311 313 316 316 320 319 320 326 329 331 330 331 326 322 323 326 324 326 332 337 338 339 340 339 339 340 340 340 339 338 336
315 315 315 314 313 311 307 306 313 321 321 319 318 322 323 324 325 321 312 309 308 306 312 312 314 314 316 319 318 314 316 316 316 318 320 318 314 310 309 311 311 305 305 307 308 310 310 311 314 313 312 312 310 309 310 310 309 310 311 312 315 320 320 321 327 325 323 322 329 323 311 315 324 326 327 333 332 333 338 337 336 338 338 338 336 337 337 337
315 315 315 313 313 310 305 312 320 321 318 317 319 322 323 323 322 323 312 304 297 304 309 304 313 308 318 314 316 316 316 310 318 319 320 320 322 315 313 310 312 305 309 309 310 311 311 312 312 311 311 310 310 310 312 311 309 308 309 312 313 319 322 323 323 323 314 314 324 328 312 307 323 325 328 329 329 330 335 336 335 337 337 337 337 337 335 336
315 314 314 313 312 308 314 313 319 319 314 316 322 322 322 323 328 320 308 299 295 302 303 307 308 307 312 315 316 315 301 306 317 320 318 321 316 320 309 308 312 314 314 314 309 307 310 309 310 310 310 310 309 309 311 310 309 307 311 313 312 317 320 321 323 319 317 323 324 326 321 310 312 322 328 328 326 330 331 333 334 334 336 336 337 337 336 335
315 314 312 311 310 308 318 318 318 316 315 319 322 322 324 326 325 320 307 292 290 305 301 306 307 313 311 314 316 310 311 314 308 313 319 321 319 314 312 309 309 309 312 311 300 310 310 307 308 307 308 308 308 312 313 312 309 309 310 313 311 317 319 321 323 320 320 320 316 321 324 314 311 322 329 329 325 325 326 332 333 334 336 336 338 337 337 335
314 313 312 311 309 308 313 317 321 315 320 322 321 322 323 326 318 311 302 290 301 303 313 303 313 309 311 313 310 310 311 313 307 313 318 320 319 314 308 311 311 311 313 310 305 306 311 311 311 309 307 306 310 313 311 311 308 311 311 313 317 317 317 320 318 316 318 315 310 318 321 312 312 321 324 326 323 323 329 332 334 335 336 336 336 337 337 336
313 312 311 310 310 312 316 319 317 321 322 322 322 324 321 319 313 303 294 287 303 297 306 306 306 305 309 307 306 309 308 308 312 314 316 313 314 316 312 316 311 309 308 310 309 309 308 312 314 311 308 309 310 311 311 311 312 313 312 315 315 314 316 318 318 319 316 307 310 316 321 315 308 318 321 322 324 328 329 332 335 337 337 337 338 337 336 336
312 311 310 309 316 322 321 319 321 324 323 325 324 322 319 315 304 296 288 295 303 302 306 304 303 308 306 305 302 307 307 309 310 312 309 313 311 311 311 309 313 308 307 307 306 308 308 308 307 309 312 311 311 308 310 311 312 311 311 312 312 313 316 312 313 316 306 304 311 318 320 318 307 315 325 327 331 332 331 330 332 334 336 336 337 337 337 338
309 308 308 311 318 319 316 315 319 322 325 324 323 319 313 301 302 294 291 305 294 299 300 301 304 304 304 306 305 305 304 307 310 310 308 308 308 306 306 304 305 300 299 301 300 306 304 305 308 309 313 309 307 306 307 308 310 310 311 312 306 304 305 302 307 302 303 304 313 316 318 316 313 319 323 328 330 332 335 333 332 334 335 337 337 338 337 337
308 307 307 309 314 318 320 324 323 326 324 322 321 316 307 298 291 298 298 300 295 302 300 304 302 302 303 303 303 304 306 302 307 308 309 308 308 307 308 307 308 305 298 302 301 301 302 306 306 307 309 310 309 302 303 302 307 308 308 308 304 300 299 297 302 305 306 309 315 315 320 312 318 322 327 327 330 332 334 336 336 336 337 338 339 339 338 337
307 307 314 315 316 321 325 326 326 324 321 323 318 310 305 295 292 301 299 300 299 304 303 301 302 302 302 301 303 305 302 303 304 305 307 305 306 304 305 307 306 305 305 302 299 300 295 296 302 305 302 310 308 306 306 305 306 307 311 310 307 307 301 297 301 299 301 307 312 319 311 311 311 317 327 330 333 335 336 337 338 338 338 339 342 341 339 338
305 310 322 321 318 321 323 325 325 323 320 318 310 304 296 294 299 297 299 301 302 303 301 303 301 301 300 302 304 304 303 301 305 304 304 303 302 304 304 304 307 306 305 299 302 301 298 300 305 308 307 309 306 309 310 307 306 309 311 313 308 306 313 304 307 306 305 306 310 314 310 319 318 329 332 332 332 334 335 336 337 338 338 339 340 339 337 337
309 326 324 327 326 327 325 325 324 321 320 314 306 300 296 299 297 301 300 305 303 301 301 302 302 299 300 300 302 301 304 302 304 305 303 304 305 302 305 305 305 306 304 300 303 298 300 297 305 306 309 308 307 309 308 310 298 305 307 305 308 316 314 309 310 311 312 310 307 318 313 317 325 326 329 332 332 333 334 335 336 337 338 338 340 340 339 340
327 324 324 324 325 326 326 325 323 321 320 312 304 298 302 302 304 303 305 302 302 303 301 297 298 299 298 297 299 300 302 305 303 303 300 304 301 303 303 304 306 305 306 304 302 306 299 299 305 305 303 308 311 310 309 310 310 307 300 305 314 318 317 311 302 306 304 300 304 311 310 311 313 310 327 329 330 332 332 334 336 339 339 336 337 339 340 340
325 323 321 321 323 326 327 326 323 322 316 308 302 301 306 301 306 305 306 305 304 304 301 300 299 301 298 299 298 300 302 301 301 303 300 303 298 305 303 304 306 305 306 308 303 303 304 297 302 305 305 308 310 310 307 310 311 307 305 312 306 303 303 310 307 299 300 298 302 308 310 309 313 315 322 324 327 329 331 333 335 335 337 336 337 338 341 342
326 321 314 320 326 326 326 326 322 318 312 304 303 300 303 304 307 306 306 305 305 303 301 301 299 301 302 299 300 301 302 299 302 301 299 301 298 303 303 304 304 306 307 307 304 305 305 298 300 306 306 308 308 307 299 303 309 311 312 308 311 310 307 305 307 308 307 300 300 303 309 305 315 317 324 325 328 331 331 332 333 335 337 337 339 340 341 341
317 313 311 323 327 328 329 325 318 315 308 302 302 302 307 303 306 308 308 307 304 304 302 301 302 300 301 301 301 299 301 302 302 302 301 301 301 304 303 305 303 306 306 307 305 307 304 306 297 303 307 307 301 305 302 304 302 303 304 305 307 307 311 310 310 307 304 303 302 303 303 308 319 328 329 329 331 333 333 333 334 336 337 338 340 340 341 342
319 314 312 323 325 328 326 321 312 306 304 305 306 304 305 304 306 307 308 308 307 309 305 304 303 301 301 301 300 303 301 302 302 301 301 301 302 298 304 305 305 304 308 306 305 306 303 303 298 303 302 301 303 308 307 308 308 305 304 303 305 303 302 300 300 309 307 305 300 303 302 311 322 329 331 333 334 334 335 336 336 337 338 339 340 342 342 343
314 307 312 324 325 325 320 308 306 309 306 303 302 305 304 310 306 306 308 309 308 306 309 306 306 304 303 303 303 302 302 301 302 301 301 301 302 304 305 308 307 306 304 304 305 309 309 307 303 300 302 303 306 308 310 310 310 309 307 304 308 307 306 302 295 302 307 307 309 308 305 312 325 328 331 333 334 335 336 336 336 337 339 339 340 341 344 344
313 311 320 325 323 321 314 307 309 307 304 305 308 307 308 307 306 307 306 307 305 307 306 305 304 304 304 305 303 303 303 301 302 300 302 303 303 305 307 308 308 306 306 306 306 309 313 304 300 302 305 306 307 309 309 309 310 308 309 309 308 305 306 304 304 306 305 306 304 306 303 310 324 331 332 333 334 334 336 335 335 336 339 341 341 342 342 344
315 313 317 324 323 320 312 302 302 303 304 306 306 305 308 307 307 306 306 307 306 305 305 305 306 307 304 307 305 302 305 298 302 302 301 304 303 307 307 308 309 308 308 307 305 310 302 307 303 298 298 301 302 306 306 309 309 306 306 308 309 310 310 309 309 311 304 305 307 304 298 307 324 328 331 331 331 331 331 333 335 335 336 338 339 342 343 343
314 314 315 315 320 316 307 308 306 304 304 303 303 303 304 305 306 307 307 306 308 307 306 304 306 307 306 307 305 305 305 303 300 303 304 304 304 308 307 307 309 309 312 314 318 315 306 304 303 296 293 291 292 293 296 300 303 306 307 306 309 308 308 307 302 305 299 307 308 304 304 318 325 327 328 329 329 330 331 333 335 336 336 337 339 339 340 341
310 305 309 311 314 312 311 312 309 306 304 304 302 303 304 302 305 307 308 307 309 308 308 307 307 308 305 305 303 302 302 305 302 302 304 302 304 306 307 307 307 308 314 316 314 313 307 308 308 304 300 298 301 303 303 307 305 302 305 307 307 308 311 310 308 304 300 306 307 309 309 316 321 322 325 327 327 327 328 331 332 333 334 336 338 339 338 339
314 308 307 303 310 310 309 309 307 307 304 307 303 303 301 302 304 305 308 304 308 307 307 307 305 304 303 303 301 302 303 302 305 304 303 303 304 305 307 307 307 310 313 314 310 310 308 303 304 305 304 303 303 302 304 306 304 304 304 305 307 308 309 309 305 303 311 305 302 312 317 311 316 322 325 327 328 328 328 329 331 331 333 333 334 336 338 340
307 313 314 316 307 302 305 305 308 306 306 306 304 305 302 302 302 301 305 307 308 308 304 306 306 305 305 304 304 301 303 303 304 301 304 304 304 305 305 306 306 313 312 308 310 309 305 300 303 304 302 303 304 304 305 305 305 305 305 305 306 308 308 306 306 310 312 306 304 315 319 313 314 323 326 328 329 328 328 330 331 331 333 334 334 334 335 337
319 317 317 319 310 309 312 310 309 306 306 306 305 304 302 302 301 303 304 304 305 305 306 302 302 305 305 307 306 303 306 300 300 305 305 303 303 304 302 304 306 308 307 307 308 311 308 302 305 305 303 303 304 304 304 304 304 305 305 306 306 307 309 309 309 311 313 316 314 313 318 317 322 325 327 329 330 329 329 331 332 331 331 332 334 334 335 336
315 313 310 316 315 311 310 308 308 306 305 309 304 304 303 302 301 304 305 305 302 303 307 303 303 305 306 306 308 304 305 306 305 302 305 305 304 306 303 304 304 307 307 304 306 310 307 303 305 304 302 301 303 304 305 304 303 303 305 306 306 308 309 309 310 312 311 312 315 313 317 320 326 331 330 331 330 330 330 329 330 331 331 331 333 334 336 337
322 324 323 314 308 310 309 307 306 306 304 305 304 304 304 303 303 305 303 306 305 303 305 303 305 305 306 306 306 304 306 307 307 306 306 306 303 304 304 304 306 304 305 305 306 306 305 303 304 304 299 299 302 302 303 303 303 303 303 305 306 305 306 309 311 314 312 313 315 316 315 317 326 330 329 328 328 328 328 329 330 330 331 332 332 333 335 336
327 325 326 321 307 311 308 307 308 305 302 306 306 305 304 303 305 305 302 305 306 306 306 306 306 306 305 305 304 305 307 307 307 308 308 308 308 307 307 306 306 305 305 305 307 304 305 303 301 300 297 297 302 302 302 302 301 299 302 305 309 309 309 311 315 317 318 317 312 310 315 321 327 328 325 324 326 327 327 328 330 331 333 332 333 333 335 335
Wind_Speed
12 12 12 11 11 11 10 10 10 10 10 10 10 10 10 10 10 9 9 9 9 9 9 9 8 9 9 9 9 9 10 9 6 7 8 14 0 12 9 5 14 9 12 13 12 12 12 10 11 9 8 7 5 5 3 4 3 4 2 2 3 4 2 7 7 3 12 13 14 13 12 13 13 11 9 9 8 8 8 7 8 9 9 13 18 18 18 17
12 12 12 12 11 11 11 11 11 11 11 10 10 10 10 10 10 10 10 9 9 9 9 8 8 9 9 9 10 9 9 8 9 10 16 3 10 12 9 6 15 14 16 13 15 14 13 12 11 12 8 7 4 2 3 1 2 2 1 3 1 6 4 1 7 7 11 13 13 11 11 11 12 13 10 9 11 10 10 9 11 14 15 17 18 18 18 16
13 13 12 12 12 12 11 11 11 11 11 10 10 10 10 10 10 10 10 10 9 9 8 8 7 8 9 9 9 10 9 8 8 12 4 7 11 12 10 10 17 18 17 15 14 12 11 12 12 12 8 5 5 3 4 4 6 3 2 2 2 3 6 5 8 6 7 13 13 11 10 9 13 10 9 9 12 12 12 12 13 14 17 18 19 18 16 15
13 13 13 13 12 12 12 12 12 11 11 10 10 10 10 10 9 9 9 10 10 9 8 8 8 7 8 9 8 8 8 8 6 5 7 5 14 14 12 14 18 19 15 12 11 10 8 9 11 11 6 6 5 3 5 5 5 3 0 2 1 3 4 7 8 6 11 13 13 11 11 11 11 8 8 11 12 10 9 10 14 17 19 19 19 18 16 15
13 14 13 13 12 12 12 12 12 11 11 11 10 9 10 10 10 9 9 9 9 9 8 8 8 7 8 8 9 7 7 7 5 4 9 7 14 14 14 16 17 17 14 10 9 7 8 11 11 9 6 5 3 4 4 3 2 4 4 2 1 6 4 5 7 8 12 12 12 11 12 11 9 8 9 11 5 7 8 10 14 18 19 20 20 18 15 16
14 14 13 13 13 13 12 12 12 11 11 11 10 10 9 9 10 9 9 9 8 8 9 9 8 8 8 5 7 6 5 1 4 5 7 11 13 14 14 16 16 15 12 12 11 9 10 10 10 8 7 6 5 4 7 2 2 3 5 4 6 4 3 6 8 10 12 12 13 11 10 11 9 9 9 4 3 8 10 10 15 17 18 17 17 17 17 15
13 14 13 13 13 13 13 12 12 11 11 11 11 10 10 9 8 9 8 8 9 8 8 8 9 9 8 8 7 5 7 4 2 8 8 11 13 14 13 17 15 14 14 14 12 11 11 10 11 8 7 3 4 3 1 1 2 4 3 4 4 3 7 5 8 11 11 13 12 9 12 10 10 11 7 5 6 10 10 12 15 17 17 17 17 16 16 15
14 14 13 13 13 13 13 12 12 12 11 12 11 11 10 9 8 9 9 8 8 8 7 7 8 9 8 7 5 5 7 1 9 7 8 12 13 14 16 17 15 14 15 15 13 12 11 10 11 6 7 4 6 5 2 4 4 4 2 5 4 5 4 7 8 10 12 11 10 11 11 10 9 9 7 7 8 11 12 13 16 17 17 16 15 16 15 14
14 14 13 13 13 13 12 12 12 12 12 11 11 11 10 9 9 8 8 7 7 7 7 7 7 8 7 7 5 7 2 8 7 4 9 12 14 16 18 14 15 15 14 13 13 11 11 10 9 8 2 3 2 3 2 5 5 2 4 4 5 6 7 7 8 10 12 8 10 11 11 9 10 12 7 7 9 12 13 14 15 17 17 16 15 15 14 14
14 14 13 13 13 13 13 13 12 12 12 11 10 10 10 9 8 8 8 7 6 6 6 6 8 7 8 7 5 6 5 3 4 4 9 12 15 16 16 12 16 15 14 13 12 11 12 8 8 5 6 2 4 1 4 3 4 3 5 5 6 8 8 7 9 11 10 10 12 11 12 11 11 8 6 7 10 13 14 14 15 15 16 15 14 14 13 14
14 14 14 13 13 14 13 13 12 12 11 11 10 10 9 9 8 7 7 7 7 6 6 6 6 5 6 7 6 1 1 3 4 4 8 11 14 15 12 13 14 13 13 12 12 11 8 5 7 3 5 2 5 2 4 4 1 5 6 8 7 7 7 7 9 11 10 10 10 11 12 11 8 7 8 10 13 13 15 15 15 14 14 13 15 14 13 12
14 14 14 14 14 13 13 12 12 11 11 11 10 10 9 8 8 7 7 6 6 6 6 6 8 5 6 7 7 3 1 5 1 5 7 11 11 7 8 12 11 11 12 12 10 11 2 6 8 9 1 1 4 2 4 0 4 7 7 7 7 8 8 8 10 11 8 7 9 10 12 9 8 8 12 13 13 14 14 15 15 14 13 13 13 12 11 11
15 15 14 14 14 13 13 13 12 11 11 11 10 9 8 8 7 7 5 5 4 6 6 5 7 4 6 7 1 6 1 2 2 8 8 8 6 4 7 8 6 8 10 10 10 8 4 2 7 10 4 6 2 4 5 1 4 6 6 4 8 7 7 7 3 6 5 5 6 9 8 7 7 10 11 13 13 14 14 14 14 13 13 13 13 12 12 11
15 15 14 14 14 14 13 13 12 12 11 10 8 9 8 7 6 4 3 4 2 6 7 6 6 5 5 3 4 2 0 1 7 10 8 8 9 8 7 6 4 2 1 5 7 7 4 2 4 6 4 7 2 2 8 3 5 7 6 6 5 5 6 10 6 7 9 2 4 2 5 8 9 10 11 11 13 15 14 13 14 14 13 13 12 12 11 12
15 14 15 15 15 14 13 12 12 11 10 9 8 8 6 5 4 4 3 6 5 5 6 8 4 5 6 3 4 4 0 3 8 10 9 11 10 10 8 8 7 5 4 3 6 5 2 2 5 6 5 3 5 7 5 8 8 6 6 8 8 8 6 9 3 6 6 4 1 3 4 8 8 11 11 10 13 12 13 14 14 14 13 13 12 13 12 11
12 14 14 15 15 14 13 10 8 10 10 10 8 7 5 4 5 5 7 3 6 6 6 6 5 4 9 3 6 6 6 7 8 10 9 7 9 8 10 9 7 7 7 5 3 5 5 4 8 5 5 5 8 7 5 7 8 7 5 7 7 4 7 8 4 4 5 8 3 3 3 8 6 10 12 11 13 13 11 15 15 15 15 14 12 11 11 11
12 11 11 14 15 14 13 9 9 9 10 8 7 4 5 7 9 7 7 7 6 5 5 2 1 2 4 5 3 6 7 6 6 9 8 3 4 9 11 11 9 9 5 6 6 8 7 8 5 4 6 7 5 8 7 7 7 7 7 6 1 9 6 1 10 5 9 9 8 4 3 9 11 12 13 12 13 12 12 15 15 14 13 13 12 12 12 11
12 11 11 13 14 14 12 9 9 11 9 6 7 5 4 8 8 9 6 8 2 3 3 3 4 4 3 6 6 6 4 7 7 9 8 5 4 11 11 9 9 10 9 9 8 11 9 7 8 6 5 7 7 8 9 8 4 5 7 6 4 9 11 9 8 10 11 8 7 8 3 7 12 13 13 13 12 12 12 13 15 15 14 13 12 12 12 11
14 13 12 11 12 13 12 9 8 9 9 4 5 4 4 7 6 5 3 5 5 5 5 5 5 3 4 7 5 4 5 7 8 10 9 8 8 9 8 5 10 13 10 9 9 11 9 6 7 7 9 9 10 9 8 3 5 8 4 6 4 3 3 10 4 12 12 11 10 8 6 8 12 12 13 13 13 12 12 13 13 14 13 13 12 12 12 11
16 14 12 11 10 12 12 10 5 4 8 5 6 5 5 5 6 4 6 6 7 6 7 2 4 3 6 3 4 7 5 9 10 8 10 9 10 11 10 10 10 10 10 9 11 11 10 10 11 10 8 10 10 10 5 1 5 3 7 7 3 6 6 12 8 8 8 5 8 10 6 7 11 11 13 13 13 12 12 14 14 14 13 14 13 13 13 12
13 13 12 10 9 9 11 10 2 3 8 7 5 6 4 8 8 5 4 5 5 4 6 4 5 6 4 4 2 5 8 9 5 11 10 10 10 13 9 10 11 9 11 8 11 8 12 10 11 12 9 5 4 3 3 4 3 7 8 7 4 7 6 5 10 11 13 9 7 8 9 8 9 11 12 13 13 14 14 15 15 15 14 13 14 14 13 12
13 12 11 10 9 8 9 5 2 4 7 6 5 5 3 5 5 4 4 1 4 2 3 4 2 6 4 6 4 4 8 9 10 12 9 11 12 10 10 10 12 10 11 10 9 9 11 12 10 11 4 1 1 4 4 4 2 5 7 7 4 4 7 5 5 7 8 3 6 12 10 9 11 10 8 13 13 11 13 13 14 16 15 12 13 13 13 12
14 13 11 10 8 8 5 3 5 5 4 5 6 5 3 5 1 1 6 6 2 4 3 3 5 5 4 3 3 5 7 11 11 12 11 11 11 7 12 10 12 9 10 12 11 12 11 11 11 6 4 3 5 4 5 5 5 5 6 6 6 5 7 7 6 8 7 5 4 8 8 8 10 10 10 10 12 10 12 13 13 14 15 15 14 13 13 15
16 15 12 9 8 6 3 2 5 6 6 9 7 5 4 3 2 4 6 4 3 5 1 2 4 2 1 1 5 8 9 8 9 12 11 10 8 8 10 11 12 10 12 14 14 12 9 7 9 7 5 6 7 7 6 7 7 5 4 7 5 7 6 6 9 8 7 5 5 8 7 7 7 11 11 11 12 12 13 14 13 13 13 13 12 12 13 14
15 15 13 10 9 6 3 4 5 4 4 7 9 6 2 3 3 5 7 3 4 5 1 4 3 2 4 2 5 8 2 7 3 11 11 11 7 9 7 6 6 11 13 15 14 11 7 5 3 8 7 7 7 7 9 7 7 7 6 3 1 4 4 3 10 9 6 8 9 9 5 6 9 10 10 10 9 12 12 13 15 14 14 14 14 14 13 13
14 12 13 10 9 6 5 3 5 3 6 6 2 3 2 2 3 5 6 4 8 5 7 5 3 5 2 5 7 2 8 8 6 8 10 6 5 4 6 7 6 10 11 14 10 8 4 7 7 9 9 9 9 8 8 8 6 5 8 6 2 2 3 5 8 5 6 7 8 12 7 2 4 11 12 11 13 13 13 14 15 15 14 14 14 13 14 13
14 12 10 9 7 1 4 2 3 3 7 4 4 1 2 3 3 5 5 5 6 3 3 6 3 5 3 6 4 8 11 10 5 7 8 7 8 4 10 7 6 2 7 7 5 8 4 8 6 5 10 9 9 10 6 8 6 4 10 8 5 4 5 6 7 8 6 6 4 12 5 3 5 10 14 15 15 13 13 15 15 14 16 15 14 14 15 14
15 11 8 5 4 6 4 6 5 6 3 4 1 1 2 1 5 5 6 4 8 3 1 4 5 1 3 6 4 5 9 17 10 8 5 8 5 10 10 10 9 9 8 7 10 7 11 8 8 9 8 9 10 9 6 10 8 2 3 4 6 4 4 6 5 5 4 8 5 8 12 6 6 7 16 17 15 16 18 16 16 16 16 16 15 15 15 15
12 11 9 6 6 6 7 5 5 5 4 2 2 2 1 5 6 5 6 5 3 1 1 5 0 4 6 5 6 3 8 7 4 12 6 6 5 4 7 10 10 9 10 10 7 8 8 9 10 9 7 8 8 8 3 7 10 4 1 3 4 4 2 4 5 4 8 7 6 7 9 4 5 8 8 14 14 17 17 17 17 17 17 16 15 16 16 14
12 10 8 7 6 4 4 5 8 2 1 2 2 2 4 6 6 5 3 7 3 6 3 4 4 6 7 8 6 7 9 5 4 9 9 7 7 7 6 5 5 7 7 7 12 4 6 2 6 8 10 7 5 7 8 8 9 5 6 7 6 6 4 3 1 4 3 7 7 6 10 8 4 6 9 10 12 13 14 14 14 16 16 16 16 17 15 15
12 9 6 3 4 2 2 5 4 3 2 2 3 5 6 5 5 2 8 6 4 6 4 4 4 4 8 9 9 4 7 7 10 10 9 6 9 2 5 8 2 6 5 5 9 7 7 6 7 6 6 6 5 6 3 6 7 8 7 9 7 5 3 5 3 1 5 6 5 1 8 8 7 6 3 7 5 14 14 16 17 17 17 16 15 15 16 15
11 8 6 7 4 5 6 4 3 1 1 3 5 6 5 5 3 5 6 4 6 5 3 6 3 3 4 3 2 9 8 7 8 10 9 9 8 8 10 6 8 7 8 8 8 9 10 10 8 8 8 11 10 9 8 7 9 10 9 9 11 7 7 9 7 9 8 5 4 2 5 6 10 1 4 8 4 8 13 13 17 18 18 17 16 17 15 14
11 8 8 10 6 5 8 3 2 3 4 6 5 6 6 3 6 2 3 2 4 5 5 4 3 4 3 7 5 5 2 2 6 4 3 6 6 5 3 6 4 6 5 11 7 7 8 12 13 10 9 11 11 12 9 10 11 13 12 11 12 10 10 11 9 7 6 9 3 4 3 8 1 3 7 9 8 6 11 13 15 17 17 18 17 16 15 15
11 8 5 7 10 8 2 2 2 4 6 5 7 6 8 2 5 0 1 4 6 3 1 1 5 3 7 6 8 6 8 5 6 5 8 7 7 7 7 5 4 7 5 5 8 7 8 9 12 12 10 12 14 12 8 8 11 12 11 11 11 10 8 10 9 11 10 5 7 7 5 3 9 5 3 5 5 8 8 11 12 15 16 16 16 16 16 16
12 5 5 4 6 9 11 7 4 4 5 6 6 7 1 5 3 4 4 4 4 0 3 3 5 8 7 3 5 4 7 7 3 7 7 8 7 5 7 8 7 6 2 5 3 2 7 5 6 18 2 16 15 15 10 10 9 11 11 9 13 13 7 9 5 6 5 8 7 8 6 1 1 5 6 5 6 7 8 10 12 14 14 15 13 14 14 14
6 4 5 3 3 3 4 4 6 6 6 6 6 3 5 5 5 3 5 4 2 2 6 6 6 7 5 6 5 3 3 4 8 6 4 3 5 1 4 3 2 5 4 8 5 7 6 9 9 11 4 13 15 14 13 10 10 11 10 14 12 4 9 8 7 5 6 5 8 4 7 6 9 6 8 8 7 8 10 10 12 15 17 15 10 11 12 12
3 4 4 3 2 2 2 5 5 6 6 8 3 4 4 4 6 4 4 6 5 4 6 6 6 3 7 7 6 7 6 5 8 6 6 5 8 3 4 5 3 2 5 8 3 4 6 4 9 8 12 9 11 14 15 13 10 6 13 11 7 6 8 6 8 6 7 10 8 8 8 8 9 6 7 10 10 10 11 12 12 15 17 18 16 16 15 15
2 3 1 4 5 2 3 5 5 5 7 3 6 5 1 2 4 5 3 3 3 4 6 3 6 7 5 5 7 6 8 8 9 9 9 6 5 2 1 2 4 3 4 5 8 4 4 6 8 7 7 11 4 7 12 14 14 8 8 9 11 10 12 9 7 11 10 11 8 8 10 11 11 5 6 11 11 12 13 14 14 16 17 18 18 20 19 17
3 5 5 5 3 1 4 4 5 6 6 2 4 5 4 3 3 6 5 3 3 4 4 3 1 2 3 3 7 3 5 5 8 6 6 3 3 1 2 4 5 1 3 6 8 3 5 8 8 5 5 9 9 10 12 12 12 10 8 11 10 7 10 10 10 9 7 9 9 9 10 9 10 4 11 10 10 11 12 14 15 16 16 15 15 16 17 16
5 6 4 4 2 1 4 4 6 6 4 2 3 5 2 3 5 5 5 4 4 5 4 1 1 5 2 4 3 5 2 1 6 5 4 4 2 3 2 0 4 2 2 5 4 2 4 1 5 9 4 8 11 10 11 12 12 14 10 8 10 10 5 8 10 12 10 8 10 8 9 9 3 5 4 7 8 9 10 11 11 12 13 14 13 13 14 14
2 5 5 3 2 2 5 7 4 2 4 5 4 5 2 4 4 5 5 4 1 5 6 5 1 2 3 7 6 1 4 2 3 5 2 6 2 6 5 5 4 1 2 4 6 4 5 6 8 5 9 7 8 14 7 5 13 13 12 12 10 11 13 10 12 11 12 9 5 8 10 3 4 2 4 6 6 7 6 8 9 11 12 12 11 12 13 13
6 5 5 4 3 4 6 3 3 0 1 2 4 3 4 5 2 5 3 4 5 3 2 2 6 5 2 4 4 3 3 4 3 3 1 2 4 6 5 6 4 4 6 1 1 3 5 3 6 7 8 7 8 3 4 4 4 8 12 13 11 11 11 11 10 10 10 11 9 9 9 2 4 1 1 4 5 5 5 5 7 8 11 12 11 11 11 12
5 5 4 2 4 5 6 3 2 2 4 6 3 4 0 1 4 3 3 5 1 3 2 5 6 1 5 3 3 4 0 4 3 3 5 7 8 8 6 6 3 5 7 2 3 4 2 4 5 6 2 1 2 4 3 2 6 10 10 10 11 14 13 13 11 9 10 10 10 8 11 2 4 3 2 4 6 5 5 6 7 7 5 5 9 10 12 11
2 3 5 3 1 3 6 4 5 5 5 5 4 7 5 7 7 6 6 8 6 5 5 4 5 7 4 3 1 2 2 3 3 2 5 2 5 4 5 6 5 2 3 5 4 4 6 4 6 6 6 7 7 8 6 6 9 10 11 9 6 8 8 8 7 5 9 12 11 11 12 6 4 3 3 4 7 7 8 8 8 9 8 6 6 5 6 10
3 2 1 3 1 3 4 3 2 5 5 5 4 4 4 4 5 6 7 8 6 6 1 6 5 3 4 2 4 3 3 3 5 4 4 4 6 3 7 7 6 2 4 6 5 4 4 2 4 8 10 10 10 11 11 12 11 4 1 1 5 11 13 11 12 9 7 8 13 11 11 4 7 6 7 7 7 8 8 8 7 7 9 9 9 9 8 8
6 5 4 4 1 3 4 1 2 3 5 5 4 4 1 5 5 5 4 7 7 6 6 2 1 2 2 2 3 3 3 3 2 4 4 4 3 4 5 5 5 6 4 5 5 5 2 2 2 4 8 4 5 5 5 2 4 10 6 3 3 8 6 9 9 11 11 8 8 10 11 3 7 9 9 10 10 10 10 9 9 9 8 6 5 7 8 8
1 2 3 4 4 2 3 3 4 4 4 0 1 0 2 2 3 4 7 1 6 5 4 6 4 2 2 1 2 4 2 5 6 5 4 3 4 3 3 4 4 7 3 5 2 4 3 3 0 1 3 4 4 6 6 2 2 2 4 3 3 5 6 10 12 11 6 10 9 6 6 10 7 10 10 11 11 10 9 8 6 6 8 8 7 7 7 9
4 2 1 4 3 4 6 5 1 3 4 3 3 2 1 2 1 2 4 5 2 4 3 3 5 5 4 3 0 2 3 5 2 4 4 3 4 4 4 3 4 5 4 1 2 4 4 4 1 3 5 4 4 4 3 3 3 2 3 1 2 3 6 11 9 3 4 9 8 2 5 9 8 8 11 11 10 9 9 7 8 8 8 9 9 8 9 9
3 3 2 1 2 3 3 5 2 4 5 2 4 1 3 1 4 4 5 1 2 4 5 1 4 6 5 2 2 4 2 4 6 4 3 2 3 2 2 5 4 5 2 1 2 3 3 2 3 3 2 4 5 2 2 2 2 2 1 3 1 3 2 3 5 1 1 3 3 4 5 8 3 5 8 9 8 8 8 8 8 9 8 8 9 9 9 8
2 1 5 2 2 4 4 4 4 5 5 2 2 3 2 1 4 3 2 5 1 3 2 3 5 5 5 4 2 3 6 8 6 4 3 3 4 4 4 5 3 1 3 3 3 2 5 3 2 3 6 3 1 2 3 5 1 3 3 3 2 2 1 1 0 2 2 2 3 2 4 3 4 5 8 8 6 7 9 10 10 9 9 9 9 10 10 10
3 3 4 2 5 3 3 4 5 4 4 5 2 5 3 4 5 5 6 5 6 4 2 4 4 3 4 6 7 7 5 5 5 6 3 5 4 4 5 4 5 2 2 2 3 2 3 2 4 5 7 8 3 2 1 2 6 2 3 5 7 2 2 5 2 5 4 2 2 1 4 3 5 4 8 6 7 9 9 10 9 9 9 9 9 9 8 9
3 1 3 4 2 1 3 4 3 5 3 4 2 7 2 6 6 3 5 3 4 5 4 3 2 4 3 2 6 6 5 4 4 4 4 3 2 2 1 3 4 4 3 3 3 2 4 3 6 4 8 8 6 3 3 5 3 8 4 9 9 5 4 1 4 4 5 4 5 4 5 3 1 4 6 6 7 7 8 8 8 9 10 10 9 9 9 9
Wind_Direction
339 337 336 335 332 331 329 328 328 325 325 326 324 321 319 319 315 314 312 308 309 314 315 314 317 318 317 317 316 315 310 292 291 252 236 248 284 119 145 101 165 183 181 180 159 165 169 174 182 166 185 198 179 220 125 207 258 232 267 291 243 138 103 125 134 93 112 138 145 155 157 144 141 144 133 137 130 111 123 112 105 89 97 112 117 127 132 136
338 337 337 333 332 330 328 328 328 327 322 322 323 321 319 319 317 314 311 309 309 310 310 315 315 318 317 313 314 316 299 283 274 261 241 121 151 147 156 179 167 170 187 178 172 178 169 175 173 179 184 207 143 168 157 146 201 259 122 294 53 55 269 280 108 112 143 141 141 145 157 149 132 140 148 146 132 133 134 128 121 111 111 117 125 132 137 143
338 336 334 333 330 330 328 326 324 322 321 320 318 319 318 316 318 315 312 310 309 309 307 311 317 314 312 314 308 299 287 286 257 253 267 190 155 161 160 168 164 176 190 175 182 182 181 175 168 186 195 210 186 145 224 145 235 100 165 30 37 28 98 140 114 125 131 133 139 144 152 140 136 144 157 153 145 155 149 137 132 133 138 135 134 138 140 146
337 335 334 332 330 327 326 325 323 323 321 319 318 319 320 318 315 315 310 311 307 307 308 307 309 312 310 307 317 298 275 276 247 94 55 142 159 166 158 161 166 183 190 185 181 190 190 170 177 201 183 242 147 247 209 133 256 87 189 159 1 6 132 101 124 121 129 146 140 144 144 140 147 139 158 142 146 157 145 146 146 145 146 141 141 141 145 148
336 335 333 331 329 328 326 324 323 322 321 319 318 318 319 319 316 314 312 306 307 305 306 307 305 307 305 305 291 277 278 269 95 54 52 127 163 163 153 162 169 181 189 179 184 197 189 179 181 208 220 195 182 194 248 144 258 232 76 130 73 96 88 133 121 132 140 140 138 142 151 137 130 141 147 158 135 149 146 148 143 144 145 146 145 143 148 151
336 335 333 330 329 328 326 325 322 321 319 318 316 317 316 316 316 314 310 305 305 304 304 305 304 302 303 310 285 261 267 248 21 20 34 126 160 160 153 158 177 184 180 176 183 180 188 190 192 197 203 238 165 243 95 265 162 255 89 56 42 58 108 122 122 134 140 144 143 158 131 135 152 138 155 149 87 118 133 133 137 142 144 144 142 144 150 155
338 335 333 332 329 328 326 323 322 318 318 315 316 317 316 315 314 310 307 307 297 300 300 303 304 301 305 288 256 260 251 313 6 25 113 146 151 161 155 159 176 185 182 179 189 181 189 189 210 192 208 240 143 263 159 110 169 299 66 77 74 93 110 134 120 145 149 147 148 128 136 149 142 141 147 115 98 116 133 131 136 139 143 145 145 150 151 154
338 336 333 332 330 327 325 323 320 319 315 314 314 313 312 312 310 306 305 302 298 291 299 299 301 301 297 263 234 229 231 341 14 40 119 137 151 160 163 165 175 176 181 184 181 185 177 195 204 196 214 209 94 232 75 238 192 227 135 107 110 106 106 122 136 150 146 144 124 136 151 141 151 122 145 114 127 132 134 131 139 142 144 147 147 149 150 152
336 335 335 332 330 327 325 322 319 317 315 313 312 313 310 310 307 304 301 298 297 293 289 296 291 297 295 283 266 281 161 29 4 358 140 155 151 158 165 164 184 175 177 180 184 179 184 193 212 225 156 168 263 257 207 257 166 235 68 115 121 125 123 128 131 141 141 130 144 154 138 140 119 129 112 129 136 136 133 136 143 146 148 148 151 150 152 156
334 335 334 332 329 327 325 320 317 316 315 312 311 310 311 307 307 302 296 293 292 291 285 289 284 282 268 256 253 253 84 333 20 105 154 156 150 155 175 166 177 179 174 178 183 183 199 183 217 160 307 139 217 290 349 275 54 178 115 114 126 122 121 137 145 138 144 148 157 147 139 132 144 170 125 147 141 142 139 140 147 152 149 151 153 153 155 159
334 334 333 332 329 326 322 320 318 315 315 313 310 309 308 307 300 297 292 291 286 280 279 264 286 270 258 258 264 227 56 317 17 130 152 160 155 165 174 170 180 180 179 171 189 191 197 228 172 213 257 91 221 180 269 51 73 136 118 116 119 126 111 140 143 143 148 149 169 148 136 142 148 241 132 148 149 153 142 143 152 155 151 154 155 156 157 159
334 332 331 330 329 325 322 319 318 316 313 314 312 308 305 300 296 290 288 287 276 265 251 256 234 255 269 266 258 27 111 15 27 136 157 162 166 163 160 170 185 184 179 174 187 191 175 199 183 220 5 156 220 162 117 156 154 137 168 132 123 135 127 157 153 148 158 136 171 140 123 153 177 114 129 145 151 154 148 144 155 157 155 155 157 154 161 159
334 332 331 330 327 326 323 321 319 318 317 313 310 305 300 298 297 288 285 269 250 233 243 218 228 251 281 242 128 49 336 351 101 152 158 163 135 138 152 161 191 193 187 182 179 163 190 213 214 216 242 282 26 308 72 275 149 171 206 152 153 158 145 124 49 66 96 128 162 175 163 153 136 123 147 147 155 155 152 150 156 159 160 159 161 158 163 158
333 332 332 330 328 326 324 322 320 320 316 310 308 306 300 295 286 285 247 251 192 220 211 211 244 251 263 296 104 81 231 120 133 157 163 153 150 139 159 163 164 168 200 204 167 172 190 236 249 254 321 264 23 125 227 156 221 210 159 208 162 200 140 146 127 151 133 116 251 45 170 159 133 146 151 151 160 161 157 157 159 163 163 161 166 163 164 158
332 332 332 329 328 326 324 323 323 319 315 311 308 300 290 274 255 216 195 188 224 235 217 227 235 259 229 123 85 87 203 203 160 163 165 165 145 143 157 167 174 182 184 174 165 174 197 227 236 223 217 212 255 251 197 183 195 203 190 215 148 183 134 115 112 164 132 164 202 277 144 161 150 149 161 159 164 172 161 161 164 165 165 165 165 168 165 164
329 330 329 330 327 327 324 325 324 317 315 314 301 284 269 240 199 189 195 225 176 213 207 220 205 264 291 207 99 138 192 172 165 159 171 183 166 155 150 151 145 152 165 155 177 175 196 208 216 229 228 193 243 230 174 194 189 198 203 246 171 142 128 137 163 206 157 141 143 248 127 134 153 161 163 171 174 173 168 161 168 166 166 166 167 170 167 164
327 323 323 325 327 327 326 327 322 324 322 312 294 264 231 222 215 214 183 187 176 217 228 293 175 237 283 69 159 194 146 101 108 156 166 223 222 143 153 149 158 151 155 145 177 178 171 206 174 227 238 251 221 227 205 204 207 200 184 246 84 130 149 135 130 210 152 166 163 202 268 146 150 166 163 174 181 177 174 164 166 166 166 167 170 170 168 168
329 326 327 325 327 328 326 321 326 326 322 303 273 181 189 207 207 171 176 205 179 210 236 266 279 258 196 203 188 108 103 131 168 147 163 154 188 161 165 160 150 154 155 146 158 186 174 203 191 194 210 226 221 217 213 213 225 225 185 201 193 133 173 155 183 194 180 165 153 179 172 147 150 163 169 174 183 181 181 166 167 168 167 170 172 172 169 174
332 332 325 325 326 329 326 329 330 329 323 329 192 239 242 198 201 223 175 163 201 185 206 155 207 263 76 130 76 128 129 96 129 156 144 162 163 164 162 145 166 157 166 175 157 189 178 205 198 223 195 204 206 218 209 13 232 221 228 301 125 79 193 153 100 148 171 187 162 178 158 145 152 161 172 174 181 188 178 174 167 170 168 173 174 171 173 173
332 327 325 326 324 327 326 325 340 318 307 191 156 172 179 197 185 174 196 217 246 300 339 309 254 276 238 196 129 55 109 161 141 158 143 139 154 156 161 169 161 196 170 192 153 201 175 197 196 202 197 198 205 217 291 343 287 165 97 276 212 175 159 104 134 152 117 144 181 174 158 155 158 166 174 175 179 188 183 178 175 171 172 177 176 172 175 172
327 328 327 326 326 321 323 325 298 295 283 268 228 240 346 11 330 51 342 237 222 244 285 278 277 293 324 11 290 192 154 173 187 152 152 165 145 160 150 175 173 191 198 169 165 137 197 212 201 203 207 209 187 206 211 234 240 203 175 217 185 244 155 124 134 178 155 197 143 159 182 179 165 176 172 174 182 190 189 180 179 174 176 178 178 173 175 170
332 330 329 333 326 323 318 315 354 300 262 263 250 270 9 4 8 346 292 312 158 191 247 270 298 267 249 258 281 283 277 142 148 147 148 198 162 201 155 196 183 190 179 167 155 165 200 216 192 199 108 157 128 198 208 264 229 206 201 191 210 185 60 93 102 158 162 132 143 173 181 184 183 149 174 179 188 191 192 183 182 175 176 180 178 175 170 171
333 332 329 331 335 324 332 302 274 212 200 213 225 240 353 9 339 289 257 277 271 118 224 219 218 224 220 193 205 219 220 157 146 162 162 214 169 247 159 199 197 167 169 174 181 177 198 211 203 148 158 183 177 203 214 224 254 205 213 208 210 131 201 154 155 172 139 162 176 203 200 177 156 160 186 193 188 198 196 190 187 180 178 178 181 174 173 174
333 333 332 332 334 347 21 6 165 191 224 230 264 296 12 321 274 220 249 308 51 120 321 106 295 288 184 175 147 210 211 122 153 155 164 198 189 133 177 201 185 170 188 187 198 189 199 204 162 159 174 206 191 194 213 215 205 219 222 203 228 173 219 311 144 167 165 198 163 171 212 178 181 174 181 193 197 194 191 189 190 188 186 179 179 176 181 174
329 331 331 334 333 355 102 171 195 220 200 218 244 250 272 289 266 230 283 209 184 106 198 169 244 238 82 174 177 221 144 149 173 137 168 213 133 179 190 183 187 192 185 188 200 203 171 49 111 181 187 202 218 196 214 228 226 182 219 278 354 176 214 139 132 166 191 185 206 156 191 214 189 197 190 161 185 196 192 195 191 186 188 181 181 180 186 182
326 323 332 328 329 7 127 206 179 157 207 239 83 135 261 280 223 231 271 239 111 93 184 144 236 123 265 161 164 247 184 162 118 139 167 211 181 264 122 192 222 181 179 183 196 217 151 138 196 193 194 194 217 231 193 226 251 221 175 189 182 190 172 155 161 147 197 216 172 199 214 196 206 201 181 176 187 194 193 200 192 185 186 187 184 180 185 187
325 325 321 327 325 115 217 37 54 231 244 157 114 325 286 251 182 202 257 153 121 21 4 74 222 87 280 114 189 154 206 135 132 143 179 179 202 161 206 146 199 102 161 182 199 199 126 159 178 200 201 206 207 220 180 211 247 212 92 186 175 177 188 179 171 177 240 86 169 203 173 259 225 196 169 187 183 193 200 197 196 188 186 187 186 182 184 186
320 319 316 311 317 239 311 318 262 244 354 61 348 304 285 211 187 230 263 133 64 232 75 136 20 124 254 135 214 235 43 125 170 157 205 152 230 160 266 163 199 154 162 189 198 107 180 176 196 188 208 209 216 219 180 207 232 54 66 171 191 167 185 191 216 209 319 285 188 191 189 216 239 127 164 167 178 190 200 194 195 191 190 188 186 187 187 185
315 315 316 318 294 251 266 255 294 292 64 55 320 292 212 172 213 274 277 84 70 322 72 115 249 212 149 163 176 176 166 185 286 136 153 187 268 300 221 163 210 151 180 207 220 122 211 212 196 212 208 210 217 216 167 210 228 198 268 230 178 152 161 228 219 185 231 237 243 193 191 227 277 141 167 172 189 195 191 193 188 191 191 188 187 190 188 185
314 314 316 316 269 200 208 228 238 283 42 328 297 285 187 202 243 229 184 85 294 133 232 61 237 131 175 175 133 172 161 147 92 142 167 193 148 209 36 6 208 154 181 197 263 62 73 72 355 224 218 235 209 212 218 214 246 25 193 196 181 191 191 169 269 317 302 254 241 209 186 222 227 157 181 184 202 192 184 190 187 188 189 188 188 190 188 186
312 303 299 271 250 15 210 229 178 186 210 279 268 221 216 229 255 315 75 62 256 83 193 209 111 174 197 186 143 126 107 146 145 155 155 186 170 208 127 165 212 208 186 196 220 214 190 168 205 199 247 248 260 202 187 245 207 205 196 204 183 179 192 231 191 209 243 248 239 253 189 200 254 163 199 171 179 191 184 187 188 187 188 189 189 190 190 187
305 296 255 226 292 313 245 18 70 69 263 264 234 222 227 216 184 35 72 136 250 96 293 109 171 233 190 297 87 166 127 124 148 178 165 190 156 198 180 206 176 185 206 196 205 189 212 208 201 206 200 225 203 229 174 200 199 205 202 201 205 201 212 219 204 216 225 228 115 274 202 208 246 310 150 147 160 187 186 184 189 188 185 187 190 191 190 186
304 284 252 237 250 233 248 297 302 306 274 241 241 231 229 276 62 39 95 266 88 333 111 294 113 198 180 191 163 138 277 164 140 194 248 169 219 167 101 324 159 269 261 170 208 168 207 207 197 205 197 204 217 214 168 196 193 203 206 193 206 205 207 225 213 229 224 219 207 243 124 248 20 184 127 167 172 167 186 186 190 189 186 185 187 191 188 187
301 280 230 185 206 235 297 334 280 277 255 222 239 215 245 39 87 153 315 46 47 101 142 170 159 168 198 219 129 188 168 112 209 135 215 163 224 170 175 179 240 198 257 106 234 192 200 176 201 196 203 178 210 228 188 208 186 206 209 209 216 219 205 217 217 214 217 232 173 130 192 217 211 109 115 105 139 152 160 180 183 194 189 186 186 187 187 186
311 258 214 152 226 238 241 239 231 252 273 235 232 253 23 82 41 29 52 29 87 62 115 182 193 176 133 131 124 194 323 134 195 164 193 186 179 207 172 163 177 280 307 263 131 300 256 313 106 183 248 171 202 212 224 192 196 207 211 216 226 222 221 242 255 239 268 229 183 179 225 172 24 143 115 151 159 174 162 164 173 184 187 182 183 186 186 184
275 162 200 210 228 127 198 199 210 218 239 244 251 36 56 8 42 0 44 327 251 330 132 179 199 176 145 129 140 196 145 292 152 205 137 246 91 107 56 75 198 203 234 237 101 217 150 235 130 169 160 189 198 201 210 197 206 183 212 217 222 249 241 231 248 222 229 291 239 146 237 220 124 182 156 155 156 172 176 170 171 174 176 168 159 176 179 181
189 145 196 162 127 69 162 183 179 204 236 265 293 86 32 89 14 341 27 341 10 308 206 213 139 276 173 143 162 170 145 199 162 206 133 160 142 58 153 104 349 203 267 299 223 290 299 119 133 178 189 198 216 199 207 201 247 165 213 213 183 236 276 234 228 201 227 242 236 202 199 240 219 179 186 164 177 166 178 178 173 168 172 177 181 188 192 189
276 224 84 56 22 90 162 177 205 230 258 255 70 76 281 69 66 4 350 296 224 224 254 292 105 292 149 170 150 157 159 218 147 225 132 230 96 349 122 167 128 305 308 251 274 124 256 258 165 180 208 165 162 209 201 210 225 246 231 192 208 188 211 197 226 226 220 221 228 208 216 231 230 192 173 184 185 172 174 177 176 173 179 185 184 189 193 190
248 236 173 48 34 138 162 186 243 260 249 144 136 154 60 44 37 27 10 326 322 280 257 40 332 140 281 187 98 163 174 219 166 181 167 154 168 92 36 339 135 167 247 229 226 160 220 276 141 145 197 145 185 194 203 189 200 250 293 233 199 231 221 212 210 240 237 236 232 217 201 227 226 172 196 174 179 167 167 175 183 178 180 181 183 187 184 182
199 206 120 57 60 169 179 221 263 237 270 90 93 67 354 44 41 51 46 323 27 313 57 159 81 146 217 68 219 145 184 254 188 131 237 125 76 86 69 81 345 37 50 199 268 217 233 277 265 133 142 165 200 193 211 193 190 195 213 221 191 229 261 230 226 232 233 239 235 237 221 222 102 32 81 142 155 160 165 172 179 179 178 179 180 178 172 172
251 264 105 39 28 216 241 252 238 105 98 91 73 83 59 31 351 64 51 12 80 20 23 44 15 89 102 170 149 133 158 147 177 170 154 139 273 150 63 6 330 288 166 187 217 193 235 201 258 167 177 194 217 186 240 285 199 196 206 217 214 203 210 208 219 212 231 234 229 229 241 107 51 26 91 122 126 140 150 168 173 177 175 173 168 172 176 179
213 194 101 33 355 247 268 201 96 349 253 109 77 2 61 323 314 34 23 72 22 69 76 59 52 63 65 58 71 149 162 133 133 152 112 180 86 14 61 347 305 286 270 262 73 98 307 294 261 231 217 200 71 99 324 296 288 224 202 216 212 219 220 219 233 204 217 234 242 252 270 171 72 114 142 124 126 129 148 161 166 165 171 177 173 177 176 177
232 56 66 3 347 280 265 117 129 160 89 83 156 106 59 93 14 35 7 1 66 354 67 43 21 38 62 20 98 111 15 97 344 72 95 98 73 37 20 357 337 256 258 149 190 110 272 233 232 257 252 291 136 103 173 249 219 222 223 245 217 215 211 230 230 232 231 215 221 226 242 183 123 108 189 127 121 137 143 166 168 167 135 151 159 173 166 172
58 119 131 100 284 286 263 185 159 117 112 120 106 91 65 50 26 50 42 43 15 34 35 51 96 38 63 8 76 99 354 160 66 141 133 71 91 29 22 13 339 300 316 20 314 89 249 149 277 226 224 178 164 172 171 180 215 229 223 193 279 278 253 259 280 284 253 224 226 228 237 192 124 161 138 160 147 162 169 169 171 170 167 161 168 170 172 181
132 94 132 99 225 263 268 42 163 137 133 138 130 116 138 101 38 22 21 46 26 26 314 63 25 5 76 62 94 93 56 339 131 42 66 87 88 55 56 12 3 11 9 22 322 315 253 281 260 230 216 210 191 189 192 185 194 150 202 220 228 247 236 223 227 213 240 239 228 230 238 105 129 168 166 174 162 171 171 162 168 166 167 164 168 173 178 189
197 187 139 150 150 130 72 335 305 144 137 150 136 85 348 109 116 66 335 71 27 56 46 54 89 317 66 170 116 105 104 66 228 141 210 133 107 84 27 21 24 18 21 357 302 266 247 195 314 282 271 296 32 33 42 7 184 206 135 209 181 220 240 250 256 248 228 221 230 228 251 167 178 178 182 181 181 178 175 173 179 169 170 157 154 158 172 183
298 248 164 157 151 114 119 162 153 188 148 175 130 26 121 53 91 104 1 44 38 26 59 28 25 265 56 247 102 94 59 114 100 131 75 123 90 82 66 19 50 41 331 242 241 274 230 211 98 1 59 64 59 48 64 16 163 106 192 164 161 191 220 231 227 243 253 257 248 237 203 239 213 182 182 182 184 187 187 173 164 166 155 158 168 180 174 183
226 98 312 7 302 147 173 140 170 129 110 220 79 249 126 159 156 90 114 65 53 24 308 99 53 57 41 32 248 140 109 98 103 105 140 90 210 161 171 65 40 32 280 77 257 281 276 219 98 270 89 75 47 78 95 93 71 87 92 114 175 175 203 229 237 282 328 244 260 41 230 237 242 186 171 179 178 181 179 167 163 168 171 169 171 180 186 186
333 89 44 327 245 63 26 78 190 143 138 80 114 193 147 126 97 44 0 52 36 53 335 87 55 52 58 54 340 104 19 215 122 76 22 62 29 287 203 185 88 8 358 56 53 10 289 207 358 291 160 85 87 103 201 147 154 159 94 73 116 200 190 209 214 186 226 26 325 231 221 226 278 155 156 157 166 169 167 169 174 180 184 173 172 177 182 175
105 256 144 185 124 110 118 160 164 172 140 138 196 89 56 123 106 124 67 340 196 88 31 88 77 53 56 66 93 99 66 36 52 105 64 330 156 6 66 14 358 8 2 39 327 93 275 129 311 269 223 156 54 141 206 221 249 182 93 59 63 212 114 59 36 72 280 207 12 286 208 198 60 108 131 130 156 158 162 178 178 177 174 173 171 176 173 169
7 357 332 244 160 98 149 161 177 182 158 175 153 142 157 105 92 73 79 31 11 52 44 81 65 96 56 80 80 83 65 59 50 58 35 1 16 36 324 81 336 356 4 41 6 11 289 214 220 245 238 197 186 288 170 263 232 190 86 26 3 307 323 26 6 22 320 351 3 282 222 174 93 112 114 147 167 172 173 177 172 171 171 169 176 170 155 144
287 177 238 293 210 142 202 146 155 206 192 75 67 137 164 121 117 154 113 54 53 35 25 348 26 299 132 99 70 50 34 11 21 23 11 7 336 326 317 335 342 344 343 49 351 7 352 270 230 243 242 225 193 276 249 248 258 230 114 19 356 30 357 65 82 42 19 334 268 271 38 337 21 133 147 166 186 179 177 180 171 172 174 171 176 169 148 147